�������l�o���
Date,Time,MP-1(��Sv/h),MP-2(��Sv/h),MP-3(��Sv/h),MP-4(��Sv/h),MP-5(��Sv/h),MP-6(��Sv/h),MP-7(��Sv/h),MP-8(��Sv/h),����,����(m/s),���J
2024/05/27,00:00,0.513,0.786,0.494,0.975,0.711,0.315,0.556,0.519,��,6.3,��
2024/05/27,00:10,0.514,0.788,0.493,0.976,0.713,0.318,0.556,0.519,��,7.0,��
2024/05/27,00:20,0.513,0.787,0.493,0.976,0.714,0.319,0.555,0.520,��,6.7,��
2024/05/27,00:30,0.514,0.787,0.493,0.978,0.715,0.318,0.555,0.519,��,7.7,��
2024/05/27,00:40,0.514,0.787,0.493,0.976,0.713,0.317,0.557,0.518,��,6.7,��
2024/05/27,00:50,0.513,0.788,0.495,0.975,0.714,0.318,0.556,0.520,��쓌,9.3,��
2024/05/27,01:00,0.513,0.787,0.494,0.977,0.713,0.319,0.557,0.519,��쓌,7.4,��
2024/05/27,01:10,0.511,0.788,0.493,0.976,0.714,0.317,0.556,0.517,��쓌,7.2,��
2024/05/27,01:20,0.515,0.787,0.492,0.978,0.713,0.316,0.557,0.518,��,7.0,��
2024/05/27,01:30,0.514,0.788,0.493,0.978,0.713,0.320,0.557,0.520,��,8.2,��
2024/05/27,01:40,0.515,0.788,0.492,0.977,0.710,0.319,0.556,0.519,��,7.1,��
2024/05/27,01:50,0.514,0.787,0.493,0.974,0.712,0.317,0.556,0.519,��,9.3,��
2024/05/27,02:00,0.512,0.785,0.493,0.977,0.710,0.319,0.556,0.520,��쓌,10.2,��
2024/05/27,02:10,0.515,0.788,0.492,0.976,0.711,0.319,0.557,0.518,��,8.2,��
2024/05/27,02:20,0.514,0.788,0.494,0.975,0.712,0.321,0.558,0.520,��,8.6,��
2024/05/27,02:30,0.514,0.787,0.493,0.976,0.711,0.316,0.556,0.518,��,9.1,��
2024/05/27,02:40,0.514,0.787,0.493,0.978,0.712,0.318,0.560,0.519,��,7.6,��
2024/05/27,02:50,0.513,0.786,0.494,0.976,0.711,0.319,0.558,0.520,��,8.7,��
2024/05/27,03:00,0.513,0.787,0.495,0.976,0.713,0.318,0.557,0.521,��,8.8,��
2024/05/27,03:10,0.516,0.787,0.493,0.976,0.712,0.319,0.556,0.519,��,8.9,��
2024/05/27,03:20,0.513,0.790,0.495,0.979,0.714,0.319,0.559,0.521,��,9.0,��
2024/05/27,03:30,0.514,0.786,0.493,0.975,0.712,0.318,0.558,0.520,��,10.8,��
2024/05/27,03:40,0.513,0.788,0.494,0.976,0.713,0.317,0.557,0.520,��,10.5,��
2024/05/27,03:50,0.513,0.787,0.493,0.975,0.713,0.318,0.557,0.518,��,10.2,��
2024/05/27,04:00,0.511,0.786,0.492,0.976,0.712,0.316,0.557,0.519,��,8.6,��
2024/05/27,04:10,0.513,0.788,0.494,0.976,0.711,0.318,0.556,0.520,��,7.4,��
2024/05/27,04:20,0.513,0.785,0.494,0.976,0.714,0.318,0.557,0.519,��,7.2,��
2024/05/27,04:30,0.512,0.786,0.491,0.976,0.711,0.319,0.557,0.520,��,9.2,��
2024/05/27,04:40,0.514,0.787,0.493,0.978,0.710,0.318,0.556,0.519,��,7.9,��
2024/05/27,04:50,0.512,0.787,0.493,0.978,0.712,0.318,0.558,0.520,��,5.9,��
2024/05/27,05:00,0.511,0.787,0.494,0.975,0.711,0.319,0.557,0.520,��,6.8,��
2024/05/27,05:10,0.513,0.786,0.493,0.979,0.712,0.318,0.556,0.520,��,5.7,��
2024/05/27,05:20,0.514,0.787,0.494,0.975,0.712,0.319,0.556,0.519,��,6.0,��
2024/05/27,05:30,0.511,0.788,0.494,0.976,0.714,0.319,0.558,0.519,��,6.9,��
2024/05/27,05:40,0.515,0.785,0.493,0.976,0.714,0.318,0.556,0.519,��,4.9,��
2024/05/27,05:50,0.513,0.788,0.495,0.977,0.714,0.317,0.556,0.520,��,5.3,��
2024/05/27,06:00,0.513,0.785,0.493,0.977,0.713,0.319,0.555,0.520,��,5.1,��
2024/05/27,06:10,0.513,0.786,0.493,0.979,0.714,0.318,0.557,0.518,��,4.9,��
2024/05/27,06:20,0.513,0.787,0.495,0.977,0.715,0.318,0.557,0.521,��쓌,6.3,��
2024/05/27,06:30,0.513,0.785,0.494,0.977,0.714,0.317,0.556,0.520,��,7.2,��
2024/05/27,06:40,0.512,0.785,0.494,0.977,0.712,0.318,0.557,0.521,��,10.2,��
2024/05/27,06:50,0.513,0.785,0.493,0.976,0.713,0.317,0.557,0.520,��,9.4,��
2024/05/27,07:00,0.511,0.782,0.494,0.978,0.713,0.317,0.556,0.519,��,6.9,��
2024/05/27,07:10,0.512,0.784,0.493,0.976,0.714,0.317,0.557,0.519,��,7.6,��
2024/05/27,07:20,0.513,0.784,0.493,0.977,0.712,0.317,0.556,0.518,��,9.5,��
2024/05/27,07:30,0.511,0.782,0.492,0.975,0.711,0.316,0.558,0.518,��,9.3,��
2024/05/27,07:40,0.513,0.783,0.493,0.977,0.711,0.318,0.557,0.518,��,8.2,��
2024/05/27,07:50,0.512,0.784,0.493,0.979,0.711,0.318,0.558,0.519,��,10.0,��
2024/05/27,08:00,0.512,0.782,0.493,0.977,0.711,0.317,0.556,0.518,��,12.0,��
2024/05/27,08:10,0.512,0.782,0.493,0.975,0.713,0.317,0.556,0.519,��,10.5,��
2024/05/27,08:20,0.511,0.781,0.493,0.976,0.710,0.318,0.558,0.519,��,10.7,��
2024/05/27,08:30,0.511,0.779,0.492,0.976,0.711,0.318,0.555,0.518,��,9.2,��
2024/05/27,08:40,0.512,0.782,0.492,0.977,0.711,0.317,0.557,0.518,��,9.8,��
2024/05/27,08:50,0.512,0.783,0.492,0.975,0.710,0.318,0.557,0.519,��,8.1,��
2024/05/27,09:00,0.511,0.783,0.491,0.978,0.710,0.318,0.555,0.519,��,10.2,��
2024/05/27,09:10,0.511,0.781,0.492,0.976,0.710,0.318,0.556,0.520,��,8.7,��
2024/05/27,09:20,0.513,0.784,0.492,0.976,0.712,0.317,0.556,0.517,��,9.7,��
2024/05/27,09:30,0.512,0.780,0.491,0.977,0.710,0.318,0.554,0.518,��,8.8,��
2024/05/27,09:40,0.511,0.782,0.492,0.974,0.711,0.316,0.556,0.518,��,7.8,��
2024/05/27,09:50,0.512,0.782,0.491,0.978,0.711,0.316,0.556,0.518,��,8.0,��
2024/05/27,10:00,0.513,0.783,0.491,0.977,0.711,0.318,0.555,0.517,��,10.9,�L
2024/05/27,10:10,0.513,0.783,0.492,0.976,0.708,0.317,0.556,0.518,��,10.2,�L
2024/05/27,10:20,0.513,0.781,0.492,0.976,0.712,0.319,0.557,0.519,��,9.7,�L
2024/05/27,10:30,0.512,0.783,0.492,0.977,0.714,0.318,0.555,0.517,��,8.9,�L
2024/05/27,10:40,0.513,0.783,0.493,0.973,0.713,0.317,0.556,0.519,��,10.8,�L
2024/05/27,10:50,0.513,0.783,0.493,0.979,0.713,0.319,0.555,0.518,��,10.9,�L
2024/05/27,11:00,0.514,0.783,0.494,0.975,0.712,0.318,0.557,0.518,��,11.3,�L
2024/05/27,11:10,0.515,0.784,0.495,0.977,0.714,0.319,0.555,0.518,��,9.4,�L
2024/05/27,11:20,0.513,0.784,0.495,0.978,0.712,0.319,0.556,0.519,��,8.2,��
2024/05/27,11:30,0.514,0.785,0.494,0.976,0.709,0.319,0.556,0.518,��,8.4,��
2024/05/27,11:40,0.512,0.785,0.494,0.979,0.707,0.319,0.555,0.519,��,7.9,��
2024/05/27,11:50,0.513,0.783,0.493,0.976,0.714,0.319,0.556,0.518,��,8.8,��
2024/05/27,12:00,0.512,0.785,0.495,0.977,0.708,0.318,0.555,0.519,��,5.9,��
2024/05/27,12:10,0.513,0.786,0.495,0.976,0.713,0.318,0.557,0.519,��쓌,6.6,��
2024/05/27,12:20,0.513,0.786,0.495,0.976,0.712,0.318,0.556,0.518,��쓌,10.2,��
2024/05/27,12:30,0.513,0.783,0.493,0.978,0.712,0.318,0.554,0.518,��,9.4,��
2024/05/27,12:40,0.514,0.783,0.492,0.978,0.712,0.319,0.555,0.519,��,9.9,��
2024/05/27,12:50,0.513,0.786,0.491,0.978,0.711,0.318,0.555,0.518,��,9.8,��
2024/05/27,13:00,0.514,0.783,0.493,0.976,0.713,0.319,0.556,0.519,��,9.5,��
2024/05/27,13:10,0.515,0.784,0.493,0.975,0.710,0.318,0.556,0.516,��,11.6,��
2024/05/27,13:20,0.514,0.786,0.492,0.975,0.712,0.318,0.557,0.518,��,11.6,��
2024/05/27,13:30,0.515,0.782,0.493,0.976,0.712,0.317,0.555,0.519,��,11.6,��
2024/05/27,13:40,0.514,0.787,0.494,0.978,0.712,0.319,0.556,0.518,��,9.9,��
2024/05/27,13:50,0.515,0.784,0.494,0.976,0.711,0.319,0.557,0.517,��,9.4,��
2024/05/27,14:00,0.514,0.786,0.492,0.974,0.713,0.319,0.556,0.519,��쓌,8.5,��
2024/05/27,14:10,0.514,0.783,0.493,0.977,0.713,0.319,0.558,0.517,��,10.0,��
2024/05/27,14:20,0.514,0.785,0.493,0.974,0.713,0.320,0.556,0.519,��쓌,10.3,��
2024/05/27,14:30,0.514,0.786,0.491,0.975,0.712,0.318,0.556,0.520,��쓌,10.2,��
2024/05/27,14:40,0.513,0.785,0.492,0.975,0.714,0.319,0.554,0.519,��쓌,9.1,��
2024/05/27,14:50,0.515,0.785,0.492,0.974,0.711,0.319,0.557,0.519,��쓌,8.0,��
2024/05/27,15:00,0.514,0.784,0.490,0.974,0.713,0.319,0.557,0.519,��쓌,10.5,��
2024/05/27,15:10,0.514,0.784,0.494,0.976,0.714,0.319,0.557,0.520,��쓌,11.6,��
2024/05/27,15:20,0.514,0.785,0.495,0.978,0.713,0.319,0.557,0.518,��,11.1,��
2024/05/27,15:30,0.514,0.786,0.493,0.976,0.713,0.318,0.557,0.517,��쓌,12.2,��
2024/05/27,15:40,0.514,0.785,0.492,0.976,0.715,0.318,0.557,0.517,��쓌,11.3,��
2024/05/27,15:50,0.515,0.783,0.494,0.977,0.713,0.319,0.557,0.519,��,9.7,��
2024/05/27,16:00,0.514,0.786,0.492,0.979,0.713,0.317,0.556,0.519,��쓌,11.9,��
2024/05/27,16:10,0.514,0.784,0.492,0.977,0.713,0.319,0.556,0.517,��쓌,14.1,��
2024/05/27,16:20,0.516,0.784,0.492,0.977,0.713,0.319,0.556,0.519,��쓌,13.5,��
2024/05/27,16:30,0.514,0.785,0.492,0.978,0.712,0.318,0.559,0.516,��쓌,12.8,��
2024/05/27,16:40,0.513,0.786,0.493,0.978,0.714,0.319,0.556,0.519,��쓌,12.5,��
2024/05/27,16:50,0.514,0.785,0.491,0.978,0.714,0.319,0.557,0.519,��쓌,14.1,��
2024/05/27,17:00,0.514,0.785,0.492,0.979,0.714,0.319,0.556,0.518,��쓌,14.1,��
2024/05/27,17:10,0.514,0.785,0.492,0.978,0.714,0.318,0.557,0.518,��쓌,13.3,��
2024/05/27,17:20,0.514,0.785,0.492,0.978,0.714,0.319,0.558,0.516,��쓌,14.4,��
2024/05/27,17:30,0.514,0.785,0.493,0.977,0.715,0.318,0.558,0.518,��쓌,14.1,��
2024/05/27,17:40,0.516,0.784,0.492,0.976,0.712,0.320,0.556,0.518,��쓌,13.5,��
2024/05/27,17:50,0.514,0.783,0.493,0.978,0.712,0.319,0.557,0.519,��쓌,14.4,��
2024/05/27,18:00,0.515,0.785,0.493,0.977,0.713,0.318,0.556,0.518,��쓌,13.8,��
2024/05/27,18:10,0.513,0.784,0.494,0.978,0.714,0.319,0.557,0.518,��쓌,13.3,��
2024/05/27,18:20,0.514,0.787,0.491,0.980,0.713,0.318,0.556,0.518,��쓌,13.6,��
2024/05/27,18:30,0.515,0.784,0.491,0.979,0.713,0.319,0.555,0.518,��,13.1,��
2024/05/27,18:40,0.515,0.784,0.493,0.981,0.713,0.319,0.555,0.518,��,10.2,��
2024/05/27,18:50,0.512,0.785,0.492,0.979,0.712,0.318,0.558,0.517,��,8.8,��
2024/05/27,19:00,0.516,0.784,0.492,0.977,0.713,0.319,0.556,0.519,��,8.9,��
2024/05/27,19:10,0.516,0.784,0.493,0.982,0.712,0.318,0.558,0.519,��,9.1,��
2024/05/27,19:20,0.514,0.782,0.493,0.979,0.711,0.319,0.558,0.521,��,9.8,��
2024/05/27,19:30,0.513,0.786,0.494,0.980,0.711,0.319,0.558,0.521,��,10.2,��
2024/05/27,19:40,0.513,0.787,0.493,0.977,0.714,0.318,0.556,0.521,��,10.9,��
2024/05/27,19:50,0.514,0.787,0.496,0.980,0.716,0.320,0.557,0.521,��,8.6,��
2024/05/27,20:00,0.515,0.785,0.493,0.980,0.713,0.319,0.559,0.520,��,9.0,��
2024/05/27,20:10,0.513,0.786,0.495,0.980,0.714,0.319,0.557,0.521,��,9.6,��
2024/05/27,20:20,0.516,0.786,0.495,0.981,0.716,0.318,0.559,0.520,��,9.1,��
2024/05/27,20:30,0.515,0.786,0.495,0.980,0.716,0.319,0.558,0.521,��,8.9,��
2024/05/27,20:40,0.513,0.785,0.496,0.981,0.714,0.320,0.557,0.519,��,8.5,��
2024/05/27,20:50,0.515,0.787,0.494,0.977,0.714,0.320,0.558,0.520,��쐼,8.2,��
2024/05/27,21:00,0.515,0.789,0.494,0.979,0.715,0.318,0.558,0.522,��,8.0,��
2024/05/27,21:10,0.514,0.789,0.495,0.981,0.714,0.319,0.558,0.520,��쐼,7.9,��
2024/05/27,21:20,0.515,0.788,0.496,0.979,0.716,0.320,0.559,0.521,��,7.2,��
2024/05/27,21:30,0.514,0.787,0.496,0.981,0.714,0.320,0.559,0.521,��,5.3,��
2024/05/27,21:40,0.514,0.789,0.494,0.980,0.716,0.319,0.557,0.522,��,5.1,��
2024/05/27,21:50,0.515,0.787,0.495,0.978,0.715,0.320,0.558,0.519,��,5.4,��
2024/05/27,22:00,0.514,0.789,0.495,0.978,0.715,0.320,0.558,0.521,��쐼,5.8,��
2024/05/27,22:10,0.513,0.788,0.495,0.980,0.715,0.320,0.559,0.522,��쐼,5.0,��
2024/05/27,22:20,0.514,0.786,0.494,0.979,0.716,0.321,0.557,0.520,��,4.9,��
2024/05/27,22:30,0.514,0.788,0.494,0.981,0.714,0.320,0.558,0.520,��쐼,4.7,��
2024/05/27,22:40,0.515,0.787,0.495,0.979,0.715,0.321,0.558,0.519,��,3.9,��
2024/05/27,22:50,0.514,0.787,0.495,0.980,0.715,0.321,0.558,0.522,��,4.3,��
2024/05/27,23:00,0.514,0.787,0.495,0.979,0.717,0.321,0.557,0.521,��,4.4,��
2024/05/27,23:10,0.513,0.789,0.495,0.979,0.716,0.320,0.557,0.522,��,4.5,��
2024/05/27,23:20,0.515,0.790,0.494,0.979,0.714,0.320,0.557,0.519,��,4.3,��
2024/05/27,23:30,0.516,0.787,0.494,0.980,0.714,0.320,0.558,0.520,��,4.0,��
2024/05/27,23:40,0.514,0.790,0.496,0.979,0.714,0.319,0.557,0.520,��,2.5,��
2024/05/27,23:50,0.512,0.788,0.494,0.979,0.716,0.319,0.557,0.521,��,3.2,��
